"startDT [UTC]","vpos","CH4 [ppm]","stdev(CH4) [ppm]","CO2 [ppm]","stdev(CO2) [ppm]","H2O_reported [%]","stdev(H2O_reported)","CavityPressure [torr]","CavityTemp [C]","OutletValve","CH4_dry [ppm]","CO2_dry [ppm]","DasTemp [C]","EtalonTemp [C]","WarmBoxTemp [C]","MPVPosition","T_ECpre [C]","T_EC1 [C]","T_EC2 [C]","p_inlet [hPa]","p_in [hPa]","p_out [hPa]","T_inlet [C]","RH_inlet [%]","dwpt_inlet [C]","T_vent [C]","RH_vent [%]","dwpt_vent [C]","flow_vent [l min-1]","flow_inlet [l min-1]","dwpt_sample [C]","T_room [C]"
2015-01-07 00:00:00,3.0,1.88466,0.02945,399.414,3.199,0.0044,0.0051,140.120,45.000,31361.53606,1.88846,399.655,31.532,45.068,45.000,0.00,0.09,-272.72,-272.72,-3,523,0,18.5,0.6,-42.9,18.9,2.1,-30.9,5.73,2.20,-23.0,24.8
2015-01-07 00:01:00,3.0,1.87708,0.00035,397.191,0.067,0.0007,0.0021,140.003,45.000,31422.25198,1.87711,397.197,31.501,45.068,45.000,0.00,0.09,-272.65,-272.78,-1,523,0,18.5,0.7,-42.5,18.9,2.1,-30.8,5.73,2.02,-23.0,24.8
2015-01-07 00:02:00,3.0,1.87670,0.00031,397.247,0.099,0.0012,0.0021,140.001,45.000,31460.26276,1.87672,397.247,31.500,45.068,45.000,0.00,0.09,-272.71,-272.73,-5,523,0,18.5,0.7,-42.6,18.9,2.1,-30.9,5.73,2.94,-23.0,24.8
2015-01-07 00:03:00,3.0,1.87624,0.00030,397.485,0.075,0.0019,0.0020,140.002,45.000,31489.88596,1.87629,397.492,31.497,45.068,45.000,0.00,0.09,-272.71,-272.73,-0,523,0,18.5,0.7,-42.5,18.9,2.1,-31.0,5.73,1.98,-23.0,24.8
2015-01-07 00:04:00,3.0,1.87628,0.00042,397.576,0.027,0.0018,0.0024,140.000,45.000,31514.76318,1.87631,397.584,31.492,45.068,45.000,0.00,0.09,-272.66,-272.78,-5,523,0,18.5,0.7,-42.2,18.9,2.1,-31.0,5.73,2.30,-23.0,24.9
2015-01-07 00:05:00,3.0,1.87663,0.00032,397.597,0.026,0.0008,0.0019,140.001,45.000,31534.51441,1.87664,397.601,31.499,45.068,45.000,0.00,0.09,-272.73,-272.70,-2,523,0,18.6,0.7,-41.9,18.9,2.1,-31.0,5.73,2.87,-23.0,24.9
2015-01-07 00:06:00,3.0,1.87619,0.00036,397.620,0.036,0.0001,0.0018,140.000,45.000,31552.37532,1.87622,397.620,31.500,45.068,45.000,0.00,0.09,-272.67,-272.74,-3,524,0,18.6,0.7,-41.7,19.0,2.1,-31.0,5.73,1.82,-23.0,24.9
2015-01-07 00:07:00,3.0,1.87616,0.00026,397.595,0.022,0.0011,0.0018,140.000,45.000,31568.87646,1.87617,397.600,31.499,45.068,45.000,0.00,0.09,-272.67,-272.78,-4,524,0,18.6,0.7,-41.8,19.0,2.1,-31.1,5.73,2.57,-23.0,24.9
2015-01-07 00:08:00,3.0,1.87621,0.00030,397.608,0.030,0.0005,0.0022,140.000,45.000,31580.27773,1.87621,397.611,31.500,45.068,45.000,0.00,0.09,-272.73,-272.70,-1,524,0,18.6,0.7,-41.6,19.0,2.1,-31.1,5.73,2.60,-23.0,25.0
2015-01-07 00:09:00,3.0,1.87633,0.00041,397.607,0.031,0.0002,0.0021,140.002,45.000,31591.99394,1.87631,397.608,31.514,45.068,45.000,0.00,0.09,-272.65,-272.76,-6,524,0,18.7,0.8,-41.3,19.0,2.1,-31.1,5.73,1.83,-23.0,25.0
2015-01-07 00:10:00,3.0,1.87646,0.00039,397.624,0.039,-0.0001,0.0018,140.002,45.000,31602.47013,1.87647,397.622,31.536,45.068,45.000,0.00,0.09,-272.70,-272.75,-1,524,0,18.7,0.7,-41.3,19.1,2.1,-31.1,5.73,2.86,-23.0,25.0
2015-01-07 00:11:00,3.0,1.87650,0.00034,397.609,0.028,-0.0001,0.0015,140.000,45.000,31611.23504,1.87651,397.609,31.509,45.068,45.000,0.00,0.09,-272.71,-272.72,-5,525,0,18.7,0.8,-41.2,19.1,2.1,-31.1,5.73,2.18,-23.0,25.0
2015-01-07 00:12:00,3.0,1.87642,0.00042,397.625,0.029,-0.0009,0.0016,139.998,45.000,31618.71487,1.87641,397.622,31.501,45.068,45.000,0.00,0.09,-272.64,-272.77,-2,525,0,18.8,0.8,-41.3,19.1,2.0,-31.1,5.73,2.15,-23.0,25.1
2015-01-07 00:13:00,3.0,1.87633,0.00037,397.603,0.039,-0.0003,0.0022,139.999,45.000,31627.49470,1.87633,397.602,31.501,45.068,45.000,0.00,0.09,-272.72,-272.73,-4,525,0,18.8,0.7,-41.7,19.1,2.0,-31.2,5.73,2.87,-23.0,25.1
2015-01-07 00:14:00,3.0,1.87640,0.00037,397.586,0.037,0.0002,0.0018,139.999,45.000,31633.77948,1.87640,397.587,31.500,45.068,45.000,0.00,0.09,-272.69,-272.75,-4,525,0,18.8,0.7,-41.6,19.2,2.0,-31.3,5.73,1.83,-23.0,25.1
2015-01-07 00:15:00,3.0,1.87633,0.00032,397.604,0.029,-0.0005,0.0016,140.002,45.000,31640.44874,1.87631,397.600,31.502,45.068,45.000,0.00,0.09,-272.67,-272.77,-1,525,-0,18.9,0.7,-41.5,19.2,2.0,-31.2,5.73,2.59,-23.0,25.2
2015-01-07 00:16:00,3.0,1.87618,0.00032,397.620,0.036,-0.0003,0.0019,139.997,45.000,31644.50585,1.87618,397.620,31.502,45.068,45.000,0.00,0.09,-272.72,-272.71,-6,526,-0,18.9,0.7,-41.3,19.2,2.0,-31.3,5.73,2.59,-23.0,25.2
2015-01-07 00:17:00,3.0,1.87617,0.00043,397.606,0.027,0.0007,0.0022,139.999,45.000,31650.95047,1.87618,397.610,31.500,45.068,45.000,0.00,0.09,-272.66,-272.77,-0,526,-0,19.0,0.8,-41.1,19.2,2.0,-31.3,5.73,1.79,-22.9,25.2
2015-01-07 00:18:00,3.0,1.87601,0.00040,397.587,0.043,0.0004,0.0016,140.001,45.000,31656.66728,1.87600,397.590,31.500,45.068,45.000,0.00,0.09,-272.68,-272.75,-5,526,-0,19.0,0.8,-40.8,19.3,2.0,-31.3,5.73,2.81,-23.0,25.2
2015-01-07 00:19:00,3.0,1.87615,0.00046,397.600,0.028,-0.0004,0.0022,139.999,45.000,31659.24997,1.87618,397.598,31.504,45.068,45.000,0.00,0.09,-272.72,-272.70,-2,526,-0,19.1,0.8,-40.7,19.3,2.0,-31.3,5.73,2.35,-22.9,25.2
2015-01-07 00:20:00,0.0,1.95745,0.03431,406.744,3.982,0.0150,0.0081,139.853,45.000,29506.54080,1.95434,406.622,31.542,45.068,45.000,0.00,0.09,-272.68,-272.75,-6,206,-0,19.1,0.7,-41.1,19.3,2.0,-31.3,5.73,2.67,-22.9,25.3
2015-01-07 00:21:00,0.0,1.97184,0.00052,408.562,0.035,0.0211,0.0013,139.997,45.000,29392.11812,1.97227,408.666,31.514,45.068,45.000,0.00,0.09,-272.68,-272.76,-5,206,-0,19.1,0.7,-41.1,19.4,2.0,-31.2,5.73,2.38,-22.9,25.3
2015-01-07 00:22:00,0.0,1.97233,0.00053,408.552,0.043,0.0210,0.0022,139.998,45.000,29356.33881,1.97275,408.656,31.508,45.068,45.000,0.00,0.09,-272.69,-272.73,-5,205,-0,19.2,0.7,-41.3,19.4,2.0,-31.3,5.73,2.47,-22.9,25.3
2015-01-07 00:23:00,0.0,1.97225,0.00036,408.578,0.038,0.0206,0.0014,139.997,45.000,29328.44927,1.97265,408.677,31.505,45.068,45.000,0.00,0.09,-272.70,-272.73,-5,205,-0,19.2,0.7,-41.8,19.4,2.0,-31.2,5.73,2.71,-22.9,25.3
2015-01-07 00:24:00,0.0,1.97120,0.00045,408.552,0.041,0.0205,0.0017,139.997,45.000,29311.81561,1.97164,408.653,31.501,45.068,45.000,0.00,0.09,-272.69,-272.76,-6,205,-0,19.2,0.7,-41.4,19.5,2.0,-31.2,5.73,2.69,-22.9,25.3
2015-01-07 00:25:00,0.0,1.97090,0.00080,408.515,0.040,0.0215,0.0021,139.999,45.000,29296.25129,1.97129,408.621,31.501,45.068,45.000,0.00,0.09,-272.68,-272.75,-6,207,-0,19.3,0.7,-41.0,19.5,2.0,-31.2,5.73,2.43,-22.9,25.3
2015-01-07 00:26:00,0.0,1.97162,0.00080,408.494,0.039,0.0218,0.0022,140.000,45.000,29279.97329,1.97206,408.601,31.500,45.068,45.000,0.00,0.09,-272.69,-272.73,-6,207,-0,19.3,0.8,-41.0,19.5,2.0,-31.2,5.73,2.40,-22.9,25.3
2015-01-07 00:27:00,0.0,1.97123,0.00061,408.463,0.036,0.0208,0.0017,139.998,45.000,29265.38300,1.97162,408.566,31.501,45.068,45.000,0.00,0.09,-272.70,-272.74,-5,206,-0,19.3,0.7,-41.1,19.5,2.0,-31.2,5.73,2.64,-22.9,25.3
2015-01-07 00:28:00,0.0,1.97177,0.00046,408.472,0.040,0.0205,0.0017,140.000,45.000,29255.59660,1.97212,408.573,31.503,45.068,45.000,0.00,0.09,-272.69,-272.75,-5,206,-0,19.3,0.7,-41.4,19.5,2.0,-31.2,5.73,2.58,-22.9,25.3
2015-01-07 00:29:00,0.0,1.97170,0.00045,408.444,0.026,0.0203,0.0016,139.997,45.000,29244.10923,1.97211,408.543,31.524,45.068,45.000,0.00,0.09,-272.67,-272.76,-5,206,-0,19.3,0.7,-41.7,19.5,2.0,-31.1,5.73,2.36,-22.9,25.3
2015-01-07 00:30:00,0.0,1.97200,0.00031,408.429,0.035,0.0204,0.0026,140.000,45.000,29235.41921,1.97240,408.530,31.540,45.068,45.000,0.00,0.09,-272.68,-272.75,-6,206,-0,19.3,0.7,-41.9,19.5,2.0,-31.2,5.73,2.21,-22.9,25.3
2015-01-07 00:31:00,0.0,1.97224,0.00042,408.429,0.031,0.0203,0.0018,140.001,45.000,29227.56328,1.97265,408.529,31.555,45.068,45.000,0.00,0.09,-272.70,-272.73,-6,206,-0,19.3,0.7,-42.1,19.5,2.0,-31.2,5.73,2.39,-22.9,25.3
2015-01-07 00:32:00,0.0,1.97194,0.00050,408.387,0.034,0.0207,0.0024,139.999,45.000,29221.95234,1.97237,408.487,31.556,45.068,45.000,0.00,0.09,-272.70,-272.72,-6,206,-0,19.3,0.7,-42.1,19.5,2.0,-31.1,5.73,2.60,-22.9,25.3
2015-01-07 00:33:00,0.0,1.97158,0.00050,408.375,0.044,0.0190,0.0019,139.998,45.000,29219.44447,1.97190,408.472,31.520,45.067,45.000,0.00,0.09,-272.68,-272.75,-5,206,-0,19.3,0.7,-42.1,19.5,2.0,-31.0,5.73,2.48,-22.9,25.3
2015-01-07 00:34:00,0.0,1.97123,0.00047,408.314,0.039,0.0205,0.0014,139.995,45.000,29215.10346,1.97164,408.414,31.501,45.068,45.000,0.00,0.09,-272.68,-272.76,-5,206,-0,19.3,0.7,-42.1,19.5,2.0,-31.0,5.73,2.22,-22.9,25.3
2015-01-07 00:35:00,0.0,1.97111,0.00066,408.312,0.035,0.0208,0.0014,139.996,45.000,29211.14285,1.97160,408.414,31.499,45.068,45.000,0.00,0.09,-272.69,-272.73,-5,207,-0,19.3,0.7,-42.0,19.5,2.0,-31.0,5.73,2.32,-22.9,25.3
2015-01-07 00:36:00,0.0,1.97055,0.00038,408.261,0.035,0.0213,0.0029,140.002,45.000,29214.51591,1.97090,408.367,31.480,45.068,45.000,0.00,0.09,-272.69,-272.73,-6,207,-0,19.2,0.7,-41.7,19.5,2.0,-31.0,5.73,2.55,-22.9,25.3
2015-01-07 00:37:00,0.0,1.97081,0.00037,408.307,0.027,0.0204,0.0017,140.002,45.000,29212.55375,1.97123,408.407,31.453,45.068,45.000,0.00,0.09,-272.68,-272.74,-6,207,-0,19.2,0.7,-41.8,19.5,2.0,-31.0,5.73,2.55,-22.9,25.3
2015-01-07 00:38:00,0.0,1.97141,0.00051,408.320,0.038,0.0197,0.0017,140.000,45.000,29210.23578,1.97176,408.415,31.453,45.068,45.000,0.00,0.09,-272.67,-272.76,-6,207,-0,19.2,0.7,-41.8,19.5,2.0,-31.0,5.73,2.27,-22.9,25.2
2015-01-07 00:39:00,0.0,1.97210,0.00059,408.342,0.038,0.0204,0.0017,139.997,45.000,29204.87210,1.97245,408.443,31.458,45.068,45.001,0.00,0.09,-272.69,-272.74,-5,207,-0,19.2,0.7,-41.6,19.5,2.0,-31.0,5.73,2.23,-22.9,25.2
2015-01-07 00:40:00,0.0,1.97206,0.00038,408.342,0.036,0.0209,0.0013,139.997,45.000,29196.58249,1.97249,408.443,31.491,45.068,45.000,0.00,0.09,-272.70,-272.74,-5,206,-0,19.2,0.7,-41.6,19.5,2.0,-31.0,5.73,2.47,-22.9,25.2
2015-01-07 00:41:00,0.0,1.97180,0.00036,408.354,0.026,0.0202,0.0023,140.001,45.000,29196.52714,1.97221,408.453,31.495,45.068,45.000,0.00,0.09,-272.70,-272.75,-5,206,-0,19.1,0.7,-41.4,19.5,2.0,-31.0,5.73,2.56,-22.9,25.2
2015-01-07 00:42:00,0.0,1.97241,0.00054,408.364,0.029,0.0201,0.0013,140.000,45.000,29199.92166,1.97275,408.463,31.486,45.068,45.000,0.00,0.09,-272.68,-272.75,-6,207,-0,19.1,0.7,-41.5,19.5,2.0,-31.0,5.73,2.37,-22.9,25.2
2015-01-07 00:43:00,0.0,1.97240,0.00038,408.336,0.031,0.0203,0.0016,140.001,45.000,29199.72542,1.97282,408.435,31.484,45.068,45.000,0.00,0.29,-271.10,-272.71,-6,207,-0,19.1,0.7,-41.5,19.5,2.0,-31.0,5.43,2.21,-24.4,25.2
2015-01-07 00:44:00,0.0,1.97158,0.00078,408.342,0.032,0.0205,0.0019,140.001,45.000,29203.12810,1.97203,408.444,31.498,45.068,45.000,0.00,0.09,-272.70,-272.73,-6,206,-0,19.1,0.7,-41.5,19.5,2.0,-31.1,5.73,2.36,-22.9,25.2
2015-01-07 00:45:00,0.0,1.97178,0.00054,408.355,0.024,0.0205,0.0017,140.001,45.000,29200.98399,1.97216,408.456,31.500,45.068,45.000,0.00,0.09,-272.69,-272.73,-5,208,-0,19.1,0.7,-41.5,19.5,2.0,-31.0,5.73,2.59,-22.9,25.2
2015-01-07 00:46:00,0.0,1.97133,0.00036,408.331,0.027,0.0208,0.0017,139.999,45.000,29199.93442,1.97173,408.434,31.502,45.068,45.000,0.00,0.09,-272.67,-272.75,-5,207,-0,19.0,0.7,-41.4,19.5,2.0,-31.1,5.73,2.47,-22.9,25.2
2015-01-07 00:47:00,0.0,1.97165,0.00036,408.342,0.024,0.0197,0.0021,140.000,45.000,29198.98368,1.97203,408.438,31.505,45.068,45.000,0.00,0.09,-272.67,-272.76,-6,207,-0,19.0,0.7,-41.9,19.4,2.0,-31.0,5.73,2.22,-22.9,25.1
2015-01-07 00:48:00,0.0,1.97201,0.00042,408.337,0.026,0.0204,0.0018,139.999,45.000,29195.86296,1.97237,408.437,31.504,45.068,45.000,0.00,0.09,-272.69,-272.75,-6,207,-0,19.0,0.7,-42.0,19.5,2.0,-30.9,5.73,2.32,-22.9,25.1
2015-01-07 00:49:00,0.0,1.97249,0.00038,408.369,0.035,0.0200,0.0016,140.000,45.000,29193.15968,1.97288,408.467,31.507,45.068,45.000,0.00,0.09,-272.69,-272.72,-6,207,-0,19.0,0.7,-42.3,19.4,2.1,-30.9,5.73,2.56,-22.9,25.1
2015-01-07 00:50:00,0.0,1.97288,0.00067,408.347,0.034,0.0187,0.0012,140.001,45.000,29194.87213,1.97318,408.439,31.506,45.068,45.000,0.00,0.09,-272.68,-272.75,-5,207,-0,19.0,0.7,-42.4,19.4,2.0,-31.0,5.73,2.58,-22.9,25.1
2015-01-07 00:51:00,0.0,1.97386,0.00043,408.364,0.034,0.0189,0.0016,139.998,45.000,29192.81886,1.97424,408.456,31.502,45.068,45.000,0.00,0.09,-272.68,-272.76,-5,207,-0,19.0,0.6,-42.6,19.4,2.0,-30.9,5.73,2.28,-22.9,25.1
2015-01-07 00:52:00,0.0,1.97487,0.00077,408.393,0.037,0.0191,0.0016,140.001,45.000,29193.02099,1.97520,408.486,31.497,45.068,45.000,0.00,0.09,-272.68,-272.75,-5,207,-0,18.9,0.6,-42.6,19.4,2.0,-31.0,5.73,2.23,-22.9,25.1
2015-01-07 00:53:00,0.0,1.97478,0.00053,408.401,0.041,0.0181,0.0018,140.002,45.000,29196.85337,1.97514,408.491,31.486,45.068,45.000,0.00,0.09,-272.69,-272.72,-6,206,-0,18.9,0.6,-42.8,19.4,2.0,-31.0,5.73,2.45,-22.9,25.1
2015-01-07 00:54:00,0.0,1.97344,0.00034,408.363,0.036,0.0176,0.0012,140.000,45.000,29200.22938,1.97383,408.450,31.443,45.068,45.000,0.00,0.09,-272.70,-272.75,-6,207,-0,18.9,0.6,-43.1,19.4,2.0,-30.9,5.73,2.59,-22.9,25.1
2015-01-07 00:55:00,0.0,1.97296,0.00056,408.382,0.033,0.0170,0.0018,140.001,45.000,29197.94952,1.97331,408.465,31.438,45.068,45.000,0.00,0.09,-272.68,-272.75,-6,207,-0,18.9,0.6,-43.1,19.4,2.1,-31.0,5.73,2.37,-22.9,25.1
2015-01-07 00:56:00,0.0,1.97178,0.00055,408.369,0.026,0.0181,0.0018,139.999,45.000,29198.25654,1.97216,408.456,31.438,45.068,45.001,0.00,0.09,-272.68,-272.74,-5,208,-0,18.9,0.6,-42.9,19.4,2.0,-31.0,5.73,2.21,-22.9,25.1
2015-01-07 00:57:00,0.0,1.97089,0.00055,408.493,0.149,0.0198,0.0017,139.997,45.000,29194.77001,1.97132,408.585,31.442,45.068,45.000,0.00,0.09,-272.70,-272.74,-5,207,-0,18.9,0.7,-42.4,19.3,2.0,-31.0,5.73,2.39,-22.9,25.1
2015-01-07 00:58:00,0.0,1.97085,0.00070,409.031,0.424,0.0199,0.0019,139.995,45.000,29193.95127,1.97119,409.130,31.456,45.068,45.001,0.00,0.09,-272.70,-272.74,-5,206,-0,18.8,0.7,-42.0,19.3,2.1,-31.0,5.73,2.58,-22.9,25.1
2015-01-07 00:59:00,0.0,1.97020,0.00045,408.765,0.318,0.0202,0.0015,139.997,45.000,29194.66428,1.97065,408.867,31.449,45.068,45.000,0.00,0.09,-272.67,-272.74,-6,207,-0,18.8,0.7,-41.9,19.3,2.0,-31.0,5.73,2.43,-22.9,25.0
2015-01-07 01:00:00,0.0,1.96996,0.00044,408.446,0.073,0.0206,0.0027,140.001,45.000,29189.52852,1.97034,408.550,31.459,45.068,45.000,0.00,0.09,-272.67,-272.75,-6,207,-0,18.8,0.7,-41.7,19.3,2.0,-31.0,5.73,2.22,-22.9,25.0
2015-01-07 01:01:00,0.0,1.96986,0.00038,408.401,0.044,0.0200,0.0021,139.999,45.000,29188.87373,1.97026,408.498,31.458,45.068,45.000,0.00,0.09,-272.70,-272.74,-6,207,-0,18.8,0.7,-41.7,19.3,2.0,-31.0,5.73,2.31,-22.9,25.0
2015-01-07 01:02:00,0.0,1.96978,0.00030,408.331,0.029,0.0211,0.0021,139.999,45.000,29192.53586,1.97018,408.436,31.449,45.068,45.000,0.00,0.09,-272.69,-272.73,-5,208,-0,18.8,0.7,-41.6,19.3,2.0,-31.0,5.73,2.56,-22.9,25.0
2015-01-07 01:03:00,0.0,1.97006,0.00046,408.333,0.036,0.0199,0.0019,139.999,45.000,29191.52343,1.97044,408.431,31.473,45.068,45.000,0.00,0.09,-272.68,-272.74,-5,206,-0,18.8,0.8,-41.3,19.3,2.0,-31.0,5.73,2.50,-22.9,25.0
2015-01-07 01:04:00,0.0,1.96995,0.00035,408.350,0.033,0.0203,0.0016,139.997,45.000,29192.36895,1.97037,408.448,31.443,45.068,45.000,0.00,0.09,-272.67,-272.76,-5,207,-0,18.7,0.7,-41.6,19.3,2.0,-31.1,5.73,2.26,-22.9,25.0
2015-01-07 01:05:00,0.0,1.96956,0.00037,408.350,0.034,0.0202,0.0019,140.001,45.000,29195.29789,1.96995,408.450,31.438,45.068,45.000,0.00,0.09,-272.68,-272.75,-6,207,-0,18.7,0.7,-41.6,19.3,2.0,-31.0,5.73,2.26,-22.9,25.0
2015-01-07 01:06:00,0.0,1.96912,0.00035,408.311,0.031,0.0208,0.0017,139.998,45.000,29194.34608,1.96953,408.413,31.438,45.068,45.000,0.00,0.09,-272.69,-272.74,-6,207,-0,18.7,0.7,-41.4,19.3,2.0,-31.1,5.73,2.54,-22.9,25.0
2015-01-07 01:07:00,0.0,1.96915,0.00044,408.364,0.026,0.0214,0.0014,139.999,45.000,29191.32383,1.96959,408.469,31.439,45.068,45.000,0.00,0.09,-272.69,-272.75,-5,207,-0,18.7,0.8,-41.3,19.2,2.0,-31.1,5.73,2.57,-22.9,25.0
2015-01-07 01:08:00,0.0,1.96918,0.00026,408.285,0.029,0.0211,0.0011,140.001,45.000,29191.01085,1.96956,408.390,31.438,45.068,45.000,0.00,0.09,-272.68,-272.76,-5,206,-0,18.7,0.8,-41.3,19.2,2.0,-31.1,5.73,2.36,-22.9,25.0
2015-01-07 01:09:00,0.0,1.96956,0.00045,408.335,0.036,0.0215,0.0012,140.000,45.000,29194.87789,1.96997,408.439,31.438,45.068,45.000,0.00,0.09,-272.68,-272.74,-5,207,-0,18.7,0.8,-41.3,19.2,2.0,-31.1,5.73,2.21,-22.9,25.0
2015-01-07 01:10:00,0.0,1.97000,0.00039,408.343,0.031,0.0216,0.0018,139.999,45.000,29196.14971,1.97041,408.450,31.438,45.068,45.000,0.00,0.09,-272.70,-272.72,-5,207,-0,18.7,0.8,-41.1,19.2,2.0,-31.1,5.73,2.52,-22.9,24.9
2015-01-07 01:11:00,0.0,1.96998,0.00056,408.316,0.040,0.0212,0.0015,140.000,45.000,29196.86413,1.97035,408.420,31.431,45.068,45.000,0.00,0.09,-272.70,-272.75,-6,207,-0,18.7,0.8,-41.0,19.2,2.1,-31.0,5.73,2.67,-22.9,25.0
2015-01-07 01:12:00,0.0,1.97012,0.00070,408.348,0.044,0.0212,0.0019,140.001,45.000,29197.50237,1.97061,408.452,31.411,45.068,45.000,0.00,0.09,-272.67,-272.75,-6,207,-0,18.6,0.8,-41.3,19.2,2.1,-31.1,5.73,2.40,-22.9,24.9
2015-01-07 01:13:00,0.0,1.96906,0.00048,408.296,0.038,0.0213,0.0014,140.003,45.000,29196.54236,1.96946,408.399,31.416,45.068,45.000,0.00,0.09,-272.68,-272.73,-5,206,-0,18.6,0.8,-41.3,19.2,2.1,-31.0,5.73,2.22,-22.9,24.9
2015-01-07 01:14:00,0.0,1.96905,0.00044,408.284,0.035,0.0213,0.0013,140.000,45.000,29202.72777,1.96947,408.391,31.403,45.068,45.000,0.00,0.09,-272.69,-272.74,-4,207,-0,18.6,0.8,-41.1,19.1,2.1,-31.0,5.73,2.37,-22.9,24.9
2015-01-07 01:15:00,0.0,1.96922,0.00061,408.334,0.069,0.0219,0.0015,140.000,45.000,29200.61465,1.96960,408.440,31.430,45.068,45.000,0.00,0.09,-272.69,-272.74,-5,207,-0,18.6,0.8,-41.0,19.1,2.1,-31.0,5.73,2.61,-23.0,24.9
2015-01-07 01:16:00,0.0,1.96966,0.00037,408.282,0.035,0.0215,0.0030,139.999,45.000,29201.15847,1.97007,408.388,31.437,45.068,45.000,0.00,0.09,-272.68,-272.75,-5,208,-0,18.6,0.8,-41.0,19.1,2.1,-31.0,5.73,2.49,-23.0,24.9
2015-01-07 01:17:00,0.0,1.96967,0.00038,408.292,0.041,0.0208,0.0019,140.000,45.000,29199.48326,1.97008,408.394,31.440,45.068,45.000,0.00,0.09,-272.68,-272.76,-6,207,-0,18.6,0.7,-41.4,19.1,2.1,-31.0,5.73,2.26,-22.9,24.9
2015-01-07 01:18:00,0.0,1.96896,0.00038,408.280,0.027,0.0206,0.0015,140.000,45.000,29202.10390,1.96939,408.382,31.442,45.068,45.000,0.00,0.09,-272.68,-272.74,-5,207,-0,18.6,0.8,-41.1,19.1,2.1,-31.0,5.73,2.28,-23.0,24.9
2015-01-07 01:19:00,0.0,1.96880,0.00040,408.236,0.029,0.0216,0.0018,140.000,45.000,29204.82449,1.96919,408.343,31.438,45.068,45.000,0.00,0.09,-272.70,-272.73,-5,209,-0,18.6,0.8,-41.0,19.1,2.1,-31.0,5.73,2.54,-23.0,24.9
2015-01-07 01:20:00,0.0,1.96892,0.00048,408.200,0.039,0.0214,0.0019,140.000,45.000,29200.05159,1.96936,408.304,31.438,45.068,45.000,0.00,0.09,-272.69,-272.75,-4,207,-0,18.6,0.8,-41.1,19.1,2.1,-31.0,5.73,2.55,-23.0,24.9
2015-01-07 01:21:00,0.0,1.96892,0.00052,408.204,0.025,0.0215,0.0016,140.000,45.000,29201.46457,1.96930,408.310,31.438,45.068,45.000,0.00,0.09,-272.68,-272.77,-5,208,-0,18.6,0.8,-41.1,19.1,2.1,-31.0,5.73,2.33,-22.9,24.9
2015-01-07 01:22:00,0.0,1.96918,0.00042,408.198,0.034,0.0221,0.0015,140.001,45.000,29202.19654,1.96964,408.306,31.438,45.068,45.000,0.00,0.09,-272.69,-272.74,-6,207,-0,18.6,0.8,-41.0,19.1,2.1,-31.0,5.73,2.26,-23.0,24.9
2015-01-07 01:23:00,0.0,1.96880,0.00052,408.181,0.036,0.0215,0.0018,139.999,45.000,29204.07833,1.96923,408.287,31.438,45.068,45.000,0.00,0.09,-272.70,-272.73,-6,208,-0,18.6,0.8,-41.0,19.1,2.1,-31.0,5.73,2.52,-23.0,24.9
2015-01-07 01:24:00,0.0,1.96866,0.00035,408.165,0.034,0.0211,0.0015,140.001,45.000,29205.67641,1.96903,408.269,31.439,45.068,45.000,0.00,0.09,-272.68,-272.75,-5,209,-0,18.6,0.8,-41.0,19.1,2.1,-31.0,5.73,2.60,-23.0,24.9
2015-01-07 01:25:00,0.0,1.96863,0.00050,408.147,0.035,0.0211,0.0020,140.000,45.000,29204.19061,1.96904,408.251,31.439,45.068,45.000,0.00,0.09,-272.67,-272.76,-4,208,-0,18.6,0.8,-41.0,19.1,2.1,-31.0,5.73,2.32,-23.0,24.9
2015-01-07 01:26:00,0.0,1.96838,0.00045,408.140,0.029,0.0214,0.0022,139.999,45.000,29205.60447,1.96883,408.244,31.440,45.068,45.000,0.00,0.09,-272.68,-272.74,-4,208,-0,18.5,0.8,-41.1,19.1,2.1,-31.0,5.73,2.22,-23.0,24.9
2015-01-07 01:27:00,0.0,1.96786,0.00040,408.150,0.025,0.0207,0.0016,139.996,45.000,29204.14033,1.96824,408.252,31.439,45.068,45.000,0.00,0.09,-272.70,-272.73,-5,207,-0,18.5,0.8,-41.1,19.1,2.1,-31.0,5.73,2.51,-23.0,24.9
2015-01-07 01:28:00,0.0,1.96803,0.00041,408.159,0.033,0.0216,0.0014,139.999,45.000,29202.93494,1.96848,408.265,31.436,45.068,45.000,0.00,0.09,-272.70,-272.74,-6,208,-0,18.5,0.8,-41.1,19.0,2.1,-31.0,5.73,2.60,-23.0,24.9
2015-01-07 01:29:00,0.0,1.96753,0.00045,408.126,0.035,0.0220,0.0011,139.999,45.000,29206.42231,1.96795,408.233,31.424,45.068,45.000,0.00,0.09,-272.67,-272.75,-5,208,-0,18.5,0.8,-41.0,19.0,2.1,-31.1,5.73,2.35,-23.0,24.9
2015-01-07 01:30:00,0.0,1.96834,0.00072,408.185,0.053,0.0219,0.0019,139.999,45.000,29204.47493,1.96871,408.290,31.394,45.068,45.000,0.00,0.09,-272.67,-272.75,-5,208,-0,18.5,0.8,-41.1,19.0,2.1,-31.1,5.73,2.20,-23.0,24.8
2015-01-07 01:31:00,0.0,1.96917,0.00048,408.177,0.028,0.0220,0.0018,140.001,45.000,29201.85949,1.96959,408.287,31.386,45.068,45.000,0.00,0.09,-272.71,-272.73,-4,208,-0,18.5,0.8,-41.1,19.0,2.1,-31.1,5.73,2.41,-23.0,24.8
2015-01-07 01:32:00,0.0,1.96932,0.00045,408.213,0.043,0.0218,0.0017,140.001,45.000,29203.58195,1.96975,408.319,31.382,45.068,45.000,0.00,0.09,-272.69,-272.74,-5,207,-0,18.5,0.8,-41.3,19.0,2.1,-31.1,5.73,2.59,-23.0,24.8
2015-01-07 01:33:00,0.0,1.96964,0.00057,408.278,0.048,0.0203,0.0018,140.001,45.000,29202.24522,1.96997,408.375,31.399,45.068,45.000,0.00,0.09,-272.67,-272.75,-6,208,-0,18.5,0.7,-41.4,19.0,2.1,-31.1,5.73,2.40,-23.0,24.8
2015-01-07 01:34:00,0.0,1.96999,0.00064,408.335,0.061,0.0206,0.0017,140.001,45.000,29203.28583,1.97040,408.435,31.414,45.068,45.000,0.00,0.09,-272.68,-272.75,-6,208,-0,18.5,0.7,-41.7,19.0,2.1,-31.1,5.73,2.22,-23.0,24.8
2015-01-07 01:35:00,0.0,1.96999,0.00050,408.321,0.044,0.0206,0.0015,140.002,45.000,29208.51300,1.97037,408.424,31.433,45.068,45.000,0.00,0.09,-272.70,-272.74,-5,208,-0,18.5,0.7,-41.9,19.0,2.1,-31.1,5.73,2.41,-23.0,24.8
2015-01-07 01:36:00,0.0,1.97241,0.00113,408.435,0.094,0.0203,0.0015,139.999,45.000,29210.63575,1.97270,408.531,31.438,45.068,45.000,0.00,0.09,-272.70,-272.74,-4,209,-0,18.5,0.7,-42.0,19.0,2.1,-31.1,5.73,2.63,-23.0,24.8
2015-01-07 01:37:00,0.0,1.97323,0.00053,408.563,0.067,0.0198,0.0018,140.000,45.000,29209.75250,1.97363,408.660,31.439,45.068,45.000,0.00,0.09,-272.67,-272.75,-4,209,-0,18.5,0.7,-42.1,19.0,2.1,-31.1,5.73,2.51,-23.0,24.8
2015-01-07 01:38:00,0.0,1.97409,0.00050,408.612,0.039,0.0196,0.0018,139.999,45.000,29204.29634,1.97441,408.707,31.458,45.068,45.000,0.00,0.09,-272.69,-272.75,-5,208,-0,18.5,0.7,-42.4,19.0,2.1,-31.1,5.73,2.26,-23.0,24.8
2015-01-07 01:39:00,0.0,1.97326,0.00058,408.626,0.027,0.0193,0.0017,140.003,45.000,29203.68278,1.97372,408.720,31.482,45.068,44.999,0.00,0.09,-272.69,-272.73,-6,208,-0,18.5,0.7,-42.4,19.0,2.1,-31.1,5.73,2.32,-23.0,24.8
2015-01-07 01:40:00,0.0,1.97230,0.00053,408.544,0.080,0.0202,0.0018,140.001,45.000,29202.37458,1.97269,408.646,31.484,45.068,44.999,0.00,0.09,-272.69,-272.73,-5,208,-0,18.5,0.7,-42.1,19.0,2.1,-31.1,5.73,2.55,-23.0,24.8
2015-01-07 01:41:00,0.0,1.97229,0.00063,408.495,0.116,0.0204,0.0011,140.000,45.000,29202.85178,1.97271,408.600,31.483,45.067,44.999,0.00,0.09,-272.68,-272.76,-4,209,-0,18.5,0.7,-41.9,18.9,2.1,-31.1,5.73,2.50,-23.0,24.8
2015-01-07 01:42:00,0.0,1.97300,0.00064,408.296,0.057,0.0207,0.0019,139.997,45.000,29198.77184,1.97337,408.398,31.462,45.068,45.000,0.00,0.09,-272.67,-272.76,-4,208,0,18.5,0.7,-41.8,19.0,2.1,-31.1,5.73,2.26,-23.1,24.8
2015-01-07 01:43:00,0.0,1.96973,0.00120,408.217,0.040,0.0207,0.0016,139.999,45.000,29198.02394,1.97029,408.318,31.441,45.068,45.000,0.00,0.09,-272.69,-272.73,-5,207,-0,18.5,0.7,-41.7,18.9,2.1,-31.1,5.73,2.24,-23.1,24.8
2015-01-07 01:44:00,0.0,1.96839,0.00042,408.176,0.032,0.0202,0.0018,140.000,45.000,29198.59089,1.96879,408.275,31.438,45.068,45.000,0.00,0.09,-272.70,-272.73,-5,207,-0,18.5,0.7,-41.8,18.9,2.1,-31.1,5.73,2.48,-23.0,24.8
2015-01-07 01:45:00,0.0,1.96833,0.00078,408.134,0.034,0.0209,0.0018,139.999,45.000,29204.63427,1.96877,408.237,31.433,45.068,45.000,0.00,0.09,-272.69,-272.75,-6,208,-0,18.5,0.7,-41.6,18.9,2.1,-31.1,5.73,2.57,-23.0,24.8
2015-01-07 01:46:00,0.0,1.96741,0.00038,408.129,0.027,0.0204,0.0018,140.000,45.000,29206.18080,1.96780,408.229,31.424,45.068,45.000,0.00,0.09,-272.68,-272.75,-5,209,-0,18.5,0.7,-41.5,18.9,2.1,-31.1,5.73,2.33,-23.1,24.8